Simultaneous Nadir Overpasses (SNOs) Predictions

Prediction of SNOs between AQUA and METOP-B Satellite Orbit:

Table of predicted SNOs for the next 14.0 days since TLE Epoch: 11/7/2015
Index Date (AQUA) Time (AQUA) Lat,Lon (AQUA) SZA (AQUA ) Date (METOP-B) Time (METOP-B) Lat,Lon (METOP-B) SZA (METOP-B ) Distance(km) Time Diff (sec)
1 11/09/2015 01:48:52 73.73, 147.18 90.37 11/09/2015 01:48:15 73.75, 147.18 90.39 2.50 37
2 11/09/2015 02:38:19 -73.82, -45.36 89.54 11/09/2015 02:38:55 -73.83, -45.31 89.52 2.41 36
3 11/11/2015 21:23:06 73.75,-146.41 91.18 11/11/2015 21:22:35 73.76,-146.39 91.19 1.71 31
4 11/11/2015 22:12:33 -73.83, 21.05 88.74 11/11/2015 22:13:15 -73.85, 21.14 88.72 3.26 42
5 11/14/2015 16:57:18 73.74, -79.95 91.92 11/14/2015 16:56:54 73.77, -79.97 91.95 2.92 24
6 11/14/2015 17:46:45 -73.82, 87.53 88.00 11/14/2015 17:47:35 -73.81, 87.45 88.01 2.56 50
7 11/17/2015 11:41:54 -73.26, 179.88 87.87 11/17/2015 11:40:46 -73.19, 177.79 87.92 67.72 68
8 11/17/2015 12:31:31 73.76, -13.54 92.65 11/17/2015 12:31:14 73.77, -13.56 92.66 0.88 17
9 11/17/2015 13:20:58 -73.83, 153.95 87.27 11/17/2015 13:21:55 -73.81, 153.87 87.29 3.14 57
10 11/20/2015 07:16:12 -73.56,-114.29 86.90 11/20/2015 07:15:00 -73.49,-115.14 86.96 27.83 72
11 11/20/2015 08:05:43 73.75, 52.93 93.31 11/20/2015 08:05:34 73.76, 52.84 93.32 2.90 9
12 11/20/2015 08:55:11 -73.87,-139.69 86.57 11/20/2015 08:56:14 -73.86,-139.60 86.58 2.88 63




NCC Satellite Simultaneous Nadir Overpasses (SNOs) Prediction Service
